THOR ABLESTAR DEB, 706

Orbit data source: Space-Track

THOR ABLESTAR DEB, 706 is space debris in LEO originally from a launch on Thu, 05 Dec 1963 UTC launched from the Air Force Western Test Range (AFWTR). Debris objects in space refer to the collection of defunct objects orbiting the Earth. Examples of debris include non-operational satellites, rocket bodies, and fragments generated from explosions, collisions, or faulty payload assembly.

Loading next visibility...
Identifier
706, 1963-049D
Orbit
LEO
Country
Flag of USUS
Related business
Manufacturer
Unknown
Mission
Spacecraft
Bus & Motor
Unknown
Mass
Unknown
Launch date (UTC)
1963-12-05 (63 years ago)
Launch vehicle
Unknown
Launch site
Air Force Western Test Range (AFWTR)
Object type
Payload
Rocket body
Debris
Shape & HBR
Unknown shape, 0.1 m
Radar Cross Section
Medium (>0.1 m² and <1 m²)

Expand to show TLE details & history
Last TLE update: 13 hours ago

TLE from 13 hours ago
0 THOR ABLESTAR DEB
1   706U 63049D   26171.47945242  .00000196  00000-0  26260-3 0  9994
2   706  89.9182  73.0166 0028799  52.0672 129.0853 13.56622287 83755
Epoch: 2026-06-20T11:30Z
TLE epoch observation values (Epoch: 2026-06-20T11:30:24.689Z)
Latitude
-1.53247°
Longitude
171.72242°
Altitude
1,064.692 km
Speed
7.313 km/s
True Right ascension
16h 52m 04s
True Declination
-1° 31' 25"
Sunlit
Object was in full shadow at epoch
Visualization orbit readout
Latitude
Unknown
Longitude
Unknown
Altitude
Unknown
Speed
Unknown
Apparent Right ascension
Unknown
Apparent Declination
Unknown
Sunlit
N/A
Visualization observer readout
Local Sidereal Time
11:43:30
Azimuth
Unknown
Elevation
Unknown
Doppler factor
Unknown
Orbital elements
Apogee altitude
1,066.411 km
Perigee altitude
1,023.655 km
Semi-major axis
7,423.17 km
Eccentricity
0.00288
Inclination
89.9182°
RAAN
73.0166°
Arg. of periapsis
52.0672°
True anomaly
129.34088°
Mean anomaly
129.0853°
Eccentric anomaly
129.21315°
Mean motion
3.39359 °/min
Orbital period
106.08 mins
BSTAR
0.0002626
Loading maneuver chart data...
Computing Atmospheric mass density...
Loading historical data...
Loading historical data...
Loading historical data...
Loading historical data...
Loading historical data...
Loading historical data...
Loading historical data...

Documentation

Showing up to 5 results
|